Terug naar catalogus

STARLINK-3503

ActiefCommunicatieVLEO
NORAD 51865·PAYLOAD·🇺🇸 United States

Gelanceerd Mar 3, 2022 vanaf Cape Canaveral Space Force Station

Loading…

Volgende Passages (komende 24 uur)

TLE

VersSource: CelesTrak SupGP

Epoch: Sep 15, 2026, 02:59 UTC

1 51865C 22022P   26258.12479167 -.00038492  00000+0 -11014-2 0  2587
2 51865  53.1585 228.7384 0001369  86.4474 279.2241 15.35415347    16

Volg STARLINK-3503 in realtime met AllMySat

Download on the App Store